This demonstration page uses our WeatherBlox Daily Observations layout. Learn more.

Left ArrowRight Arrow

39.08367, -84.50855

Hourly Observations for May 12, 2017

Temp ( °F °C ) Dew Point ( °F °C ) Humidity (%) Winds ( mph kmh ) Pressure ( in mb ) Visibility ( mi km ) Precip ( " mm )
12:24 am 00:24 Mostly Cloudy 58 14.4 53 11.7 84 84 NNE 10 17 29.91 1013 10 16.0934 N/A
12:40 am 00:40 Mostly Clear 58 14.4 52 11.1 81 81 NNE 12 19 29.91 1013 10 16.0934 N/A
12:53 am 00:53 Mostly Clear 57 13.9 51 10.6 81 81 NNE 8 13 29.9 1013 10 16.0934 N/A
1:53 am 01:53 Cloudy 57 13.9 51 10.6 81 81 NNE 7 11 29.9 1013 10 16.0934 N/A
2:13 am 02:13 Cloudy 57 13.9 51 10.6 81 81 NE 5 7 29.91 1013 10 16.0934 N/A
2:43 am 02:43 Cloudy 57 13.9 49 9.4 74 74 NNE 8 13 29.88 1012 10 16.0934 N/A
2:53 am 02:53 Cloudy 57 13.9 48 8.9 72 72 NNE 7 11 29.88 1012 10 16.0934 N/A
3:53 am 03:53 Cloudy 56 13.3 48 8.9 75 75 NE 3 6 29.87 1012 10 16.0934 N/A
4:53 am 04:53 Cloudy 56 13.3 49 9.4 77 77 NNE 5 7 29.87 1012 10 16.0934 N/A
5:53 am 05:53 Cloudy 54 12.2 49 9.4 83 83 NNE 5 7 29.86 1011 10 16.0934 N/A
6:13 am 06:13 Cloudy 55 12.8 49 9.4 80 80 NE 3 6 29.91 1013 10 16.0934 N/A
6:53 am 06:53 Cloudy 56 13.3 49 9.4 77 77 NE 5 7 29.88 1012 10 16.0934 N/A
7:27 am 07:27 Cloudy 56 13.3 49 9.4 77 77 NNE 5 7 29.91 1013 10 16.0934 N/A
7:53 am 07:53 Cloudy 56 13.3 49 9.4 77 77 NNE 5 7 29.88 1012 10 16.0934 N/A
8:53 am 08:53 Cloudy 56 13.3 49 9.4 77 77 NNE 7 11 29.87 1012 10 16.0934 N/A
9:53 am 09:53 Cloudy 57 13.9 50 10 78 78 NE 6 9 29.87 1012 10 16.0934 N/A
10:48 am 10:48 Cloudy 57 14 50 10 77 77 NNE 7 11 29.88 1012 10 16.0934 N/A
10:53 am 10:53 Cloudy 57 13.9 50 10 78 78 NNE 8 13 29.88 1012 10 16.0934 N/A
11:53 am 11:53 Cloudy 57 13.9 51 10.6 81 81 N 7 11 29.9 1012 10 16.0934 N/A
12:53 pm 12:53 Cloudy 59 15 53 11.7 81 81 NE 8 13 29.88 1012 10 16.0934 N/A
1:53 pm 13:53 Cloudy 60 15.6 54 12.2 80 80 NE 8 13 29.88 1012 10 16.0934 N/A
2:01 pm 14:01 Cloudy 60 15.6 54 12.2 80 80 NE 7 11 29.88 1012 10 16.0934 N/A
2:53 pm 14:53 Cloudy 62 16.7 55 12.8 78 78 NE 7 11 29.88 1012 10 16.0934 N/A
3:53 pm 15:53 Cloudy 62 16.7 55 12.8 78 78 NE 8 13 29.86 1011 10 16.0934 N/A
4:53 pm 16:53 Cloudy 63 17.2 55 12.8 76 76 NE 7 11 29.84 1011 10 16.0934 N/A
5:53 pm 17:53 Cloudy 63 17.2 55 12.8 76 76 NE 6 9 29.85 1011 10 16.0934 N/A
6:53 pm 18:53 Cloudy 64 17.8 56 13.3 75 75 NE 3 6 29.85 1011 10 16.0934 N/A
7:53 pm 19:53 Partly Cloudy 64 17.8 58 14.4 81 81 N N/A 29.85 1011 10 16.0934 N/A
8:53 pm 20:53 Partly Cloudy 58 14.4 58 14.4 100 100 N N/A 29.86 1011 10 16.0934 N/A
9:53 pm 21:53 Mostly Cloudy 56 13.3 56 13.3 100 100 N N/A 29.88 1012 8 12.87472 N/A
10:53 pm 22:53 Clear 55 12.8 51 10.6 87 87 NE 5 7 29.89 1012 10 16.0934 N/A
11:53 pm 23:53 Clear 51 10.6 50 10 96 96 N N/A 29.9 1012 10 16.0934 N/A

Powered by AerisWeather